Jefferson, NC

10:55 PM EDT on July 15, 2019 (GMT -0400)
Ashe County

Weather History for KGEV - May, 2019

Change the Weather History Date:

Saturday, May 25, 2019

  Actual Average Record
Temperature  
Mean Temperature 71 °F -  
Max Temperature 83 °F 73 °F 84 °F (1975)
Min Temperature 59 °F 49 °F 37 °F (1983)
Cooling Degree Days 6    
Growing Degree Days 21 (Base 50)    
Moisture  
Dew Point 59 °F    
Average Humidity 66    
Maximum Humidity 94    
Minimum Humidity 38    
Precipitation  
Precipitation 0.00 in - - ()
Sea Level Pressure  
Sea Level Pressure 30.26 in    
Wind  
Wind Speed 3 mph (WSW)    
Max Wind Speed 13 mph    
Max Gust Speed 21 mph    
Visibility 10 miles    
Events      
Averages and records for this station are not official NWS values.
T = Trace of Precipitation, MM = Missing Value Source: NWS Daily Summary

Daily Weather History Graph

Daily Weather History Graph

Search for Another Location

Airport or City:

Astronomy

May. 25, 2019 Rise Set
Actual Time 6:12 AM EDT 8:33 PM EDT
Civil Twilight 5:42 AM EDT 9:02 PM EDT
Nautical Twilight 5:06 AM EDT 9:39 PM EDT
Astronomical Twilight 4:27 AM EDT 10:18 PM EDT
Moon 1:35 AM EDT (5/25) 12:07 PM EDT (5/25)
Length of Visible Light 15h 19m
Length of Day
14h 20m
Waning Gibbous, 60% of the Moon is Illuminated
May 25
Waning Gibbous
May 26
Last Quarter
Jun 3
New
Jun 10
First Quarter
Jun 17
Full

Hourly Weather History & Observations

Time (EDT) Temp. Heat Index Dew Point Humidity Pressure Visibility Wind Dir Wind Speed Gust Speed Precip Events Conditions
12:05 AM 68.5 °F - 58.6 °F 71% 30.25 in 10.0 mi Calm Calm - N/A   Clear
12:25 AM 67.1 °F - 58.6 °F 74% 30.25 in 10.0 mi Calm Calm - N/A   Clear
12:45 AM 68.4 °F - 58.1 °F 70% 30.24 in 10.0 mi SSW 3.5 mph - N/A   Clear
1:05 AM 64.6 °F - 58.3 °F 80% 30.23 in 10.0 mi SW 3.5 mph - N/A   Clear
1:25 AM 66.2 °F - 58.1 °F 75% 30.23 in 10.0 mi WSW 3.5 mph - N/A   Clear
1:45 AM 64.9 °F - 58.3 °F 79% 30.22 in 10.0 mi Calm Calm - N/A   Clear
2:05 AM 66.2 °F - 57.9 °F 75% 30.22 in 10.0 mi West 6.9 mph - N/A   Clear
2:25 AM 62.8 °F - 58.1 °F 85% 30.23 in 10.0 mi Calm Calm - N/A   Clear
2:45 AM 62.8 °F - 57.9 °F 84% 30.22 in 10.0 mi Calm Calm - N/A   Clear
3:05 AM 62.4 °F - 58.1 °F 86% 30.23 in 10.0 mi Calm Calm - N/A   Clear
3:25 AM 62.6 °F - 58.1 °F 85% 30.23 in 10.0 mi Calm Calm - N/A   Clear
4:05 AM 60.4 °F - 57.7 °F 91% 30.24 in 10.0 mi Calm Calm - N/A   Clear
4:25 AM 59.9 °F - 57.9 °F 93% 30.25 in 10.0 mi Calm Calm - N/A   Clear
4:45 AM 59.4 °F - 57.6 °F 94% 30.26 in 10.0 mi Calm Calm - N/A   Clear
5:05 AM 59.2 °F - 57.6 °F 94% 30.26 in 10.0 mi Calm Calm - N/A   Clear
5:25 AM 59.5 °F - 57.7 °F 94% 30.26 in 10.0 mi Calm Calm - N/A   Clear
5:45 AM 59.9 °F - 56.1 °F 87% 30.26 in 10.0 mi WSW 3.5 mph - N/A   Clear
6:05 AM 59.7 °F - 55.6 °F 86% 30.26 in 10.0 mi Calm Calm - N/A   Clear
6:25 AM 59.7 °F - 54.7 °F 83% 30.27 in 10.0 mi West 3.5 mph - N/A   Clear
6:45 AM 59.9 °F - 54.1 °F 81% 30.27 in 10.0 mi WSW 3.5 mph - N/A   Clear
7:05 AM 59.4 °F - 54.0 °F 82% 30.28 in 10.0 mi Calm Calm - N/A   Clear
7:25 AM 60.4 °F - 53.6 °F 78% 30.29 in 10.0 mi WSW 3.5 mph - N/A   Clear
7:45 AM 62.2 °F - 55.0 °F 77% 30.29 in 10.0 mi Calm Calm - N/A   Clear
8:05 AM 64.8 °F - 57.0 °F 76% 30.29 in 10.0 mi Calm Calm - N/A   Clear
8:25 AM 64.6 °F - 58.8 °F 82% 30.30 in 10.0 mi Calm Calm - N/A   Clear
8:45 AM 66.9 °F - 60.4 °F 80% 30.29 in 10.0 mi Calm Calm - N/A   Clear
9:05 AM 68.4 °F - 61.2 °F 78% 30.30 in 10.0 mi Calm Calm - N/A   Clear
9:25 AM 69.4 °F - 61.5 °F 76% 30.30 in 10.0 mi Calm Calm - N/A   Scattered Clouds
9:45 AM 71.4 °F - 58.6 °F 64% 30.30 in 10.0 mi Calm Calm - N/A   Scattered Clouds
10:05 AM 72.3 °F - 59.4 °F 64% 30.30 in 10.0 mi South 3.5 mph - N/A   Scattered Clouds
10:25 AM 74.5 °F - 60.3 °F 61% 30.30 in 10.0 mi Calm Calm - N/A   Clear
10:45 AM 75.2 °F - 60.4 °F 60% 30.30 in 10.0 mi Calm Calm - N/A   Scattered Clouds
11:05 AM 77.0 °F - 60.3 °F 56% 30.30 in 10.0 mi West 3.5 mph - N/A   Scattered Clouds
11:25 AM 75.7 °F - 61.0 °F 60% 30.30 in 10.0 mi Calm Calm - N/A   Mostly Cloudy
11:45 AM 76.1 °F - 63.5 °F 65% 30.30 in 10.0 mi Calm Calm - N/A   Overcast
12:05 PM 75.9 °F - 62.6 °F 63% 30.30 in 10.0 mi Calm Calm - N/A   Overcast
12:25 PM 75.0 °F - 61.0 °F 62% 30.30 in 10.0 mi West 3.5 mph - N/A   Mostly Cloudy
12:45 PM 77.2 °F - 61.7 °F 59% 30.29 in 10.0 mi Calm Calm - N/A   Mostly Cloudy
1:05 PM 78.4 °F - 62.6 °F 58% 30.28 in 10.0 mi SSW 5.8 mph - N/A   Scattered Clouds
1:25 PM 78.4 °F - 63.9 °F 61% 30.27 in 10.0 mi South 3.5 mph - N/A   Mostly Cloudy
1:45 PM 77.5 °F - 63.0 °F 61% 30.26 in 10.0 mi Calm Calm - N/A   Mostly Cloudy
2:05 PM 76.3 °F - 63.1 °F 64% 30.26 in 10.0 mi South 3.5 mph - N/A   Mostly Cloudy
2:25 PM 76.5 °F - 64.4 °F 66% 30.26 in 10.0 mi SSE 4.6 mph - N/A   Overcast
2:45 PM 77.5 °F - 64.9 °F 65% 30.25 in 10.0 mi South 3.5 mph - N/A   Mostly Cloudy
3:05 PM 78.6 °F - 64.8 °F 62% 30.24 in 10.0 mi South 3.5 mph - N/A   Mostly Cloudy
3:25 PM 81.3 °F 81.1 °F 56.5 °F 42% 30.24 in 10.0 mi West 4.6 mph - N/A   Scattered Clouds
3:45 PM 79.5 °F - 62.1 °F 55% 30.23 in 10.0 mi West 3.5 mph - N/A   Clear
4:05 PM 83.1 °F 82.2 °F 55.4 °F 38% 30.22 in 10.0 mi West 11.5 mph 16.1 mph N/A   Scattered Clouds
4:25 PM 82.8 °F 82.4 °F 57.6 °F 42% 30.23 in 10.0 mi West 5.8 mph - N/A   Scattered Clouds
4:45 PM 82.4 °F 82.0 °F 57.4 °F 42% 30.23 in 10.0 mi WNW 10.4 mph 16.1 mph N/A   Mostly Cloudy
5:05 PM 80.1 °F 81.1 °F 61.3 °F 53% 30.22 in 10.0 mi ESE 3.5 mph - N/A   Mostly Cloudy
5:25 PM 78.3 °F - 64.2 °F 62% 30.22 in 10.0 mi South 4.6 mph - N/A   Mostly Cloudy
5:45 PM 79.9 °F - 64.2 °F 59% 30.23 in 10.0 mi WSW 6.9 mph - N/A   Overcast
6:05 PM 81.9 °F 81.9 °F 58.5 °F 45% 30.23 in 10.0 mi WNW 9.2 mph - N/A   Scattered Clouds
6:25 PM 80.8 °F 80.6 °F 54.9 °F 41% 30.23 in 10.0 mi West 8.1 mph - N/A   Clear
6:45 PM 80.1 °F 80.3 °F 56.3 °F 44% 30.23 in 10.0 mi WNW 11.5 mph 20.7 mph N/A   Clear
7:05 PM 79.7 °F - 57.4 °F 46% 30.23 in 10.0 mi West 11.5 mph - N/A   Clear
7:25 PM 79.2 °F - 55.8 °F 44% 30.23 in 10.0 mi West 6.9 mph - N/A   Scattered Clouds
7:45 PM 78.6 °F - 54.5 °F 43% 30.23 in 10.0 mi West 11.5 mph - N/A   Clear
8:05 PM 77.4 °F - 54.1 °F 44% 30.24 in 10.0 mi West 8.1 mph - N/A   Clear
8:25 PM 76.5 °F - 54.7 °F 47% 30.24 in 10.0 mi West 9.2 mph - N/A   Clear
8:45 PM 75.4 °F - 55.8 °F 50% 30.24 in 10.0 mi West 6.9 mph - N/A   Clear
9:05 PM 75.2 °F - 57.0 °F 53% 30.24 in 10.0 mi West 8.1 mph - N/A   Clear
9:25 PM 75.0 °F - 58.1 °F 56% 30.24 in 10.0 mi West 9.2 mph 18.4 mph N/A   Clear
9:45 PM 74.1 °F - 58.3 °F 58% 30.24 in 10.0 mi West 5.8 mph - N/A   Clear
10:05 PM 73.0 °F - 59.0 °F 61% 30.24 in 10.0 mi WSW 8.1 mph - N/A   Clear
10:25 PM 73.2 °F - 59.5 °F 62% 30.25 in 10.0 mi West 8.1 mph - N/A   Clear
10:45 PM 73.0 °F - 59.9 °F 63% 30.25 in 10.0 mi WNW 8.1 mph 17.3 mph N/A   Clear
11:05 PM 72.9 °F - 59.9 °F 64% 30.24 in 10.0 mi West 8.1 mph 17.3 mph N/A   Clear
11:25 PM 72.5 °F - 60.3 °F 65% 30.24 in 10.0 mi West 9.2 mph - N/A   Clear
11:45 PM 72.5 °F - 60.4 °F 66% 30.24 in 10.0 mi WNW 12.7 mph 19.6 mph N/A   Clear